Year,Month,Day,Hour,Minute,Value (Times are PST for temperature in C)
2016,08,26,00,00,18.20
2016,08,26,00,01,18.30
2016,08,26,00,02,18.30
2016,08,26,00,03,18.40
2016,08,26,00,04,18.50
2016,08,26,00,05,18.70
2016,08,26,00,06,18.80
2016,08,26,00,07,18.80
2016,08,26,00,08,18.80
2016,08,26,00,09,18.80
2016,08,26,00,10,18.90
2016,08,26,00,11,18.90
2016,08,26,00,12,18.90
2016,08,26,00,13,18.90
2016,08,26,00,14,18.90
2016,08,26,00,15,18.90
2016,08,26,00,16,18.90
2016,08,26,00,17,18.90
2016,08,26,00,18,18.90
2016,08,26,00,19,18.90
2016,08,26,00,20,19.00
2016,08,26,00,21,19.00
2016,08,26,00,22,19.10
2016,08,26,00,23,19.20
2016,08,26,00,24,19.20
2016,08,26,00,25,19.20
2016,08,26,00,26,19.30
2016,08,26,00,27,19.60
2016,08,26,00,28,19.80
2016,08,26,00,29,20.00
2016,08,26,00,30,20.10
2016,08,26,00,31,20.30
2016,08,26,00,32,20.50
2016,08,26,00,33,20.70
2016,08,26,00,34,20.90
2016,08,26,00,35,21.00
2016,08,26,00,36,21.10
2016,08,26,00,37,21.10
2016,08,26,00,38,21.20
2016,08,26,00,39,21.20
2016,08,26,00,40,21.30
2016,08,26,00,41,21.30
2016,08,26,00,42,21.40
2016,08,26,00,43,21.50
2016,08,26,00,44,21.60
2016,08,26,00,45,21.70
2016,08,26,00,46,21.80
2016,08,26,00,47,21.90
2016,08,26,00,48,22.00
2016,08,26,00,49,22.10
2016,08,26,00,50,22.10
2016,08,26,00,51,22.10
2016,08,26,00,52,22.10
2016,08,26,00,53,22.10
2016,08,26,00,54,22.10
2016,08,26,00,55,22.00
2016,08,26,00,56,21.90
2016,08,26,00,57,21.80
2016,08,26,00,58,21.80
2016,08,26,00,59,21.80
2016,08,26,01,00,21.90
2016,08,26,01,01,21.90
2016,08,26,01,02,21.90
2016,08,26,01,03,22.00
2016,08,26,01,04,21.90
2016,08,26,01,05,21.90
2016,08,26,01,06,21.90
2016,08,26,01,07,22.00
2016,08,26,01,08,22.10
2016,08,26,01,09,22.30
2016,08,26,01,10,22.40
2016,08,26,01,11,22.30
2016,08,26,01,12,22.30
2016,08,26,01,13,22.40
2016,08,26,01,14,22.40
2016,08,26,01,15,22.40
2016,08,26,01,16,22.40
2016,08,26,01,17,22.40
2016,08,26,01,18,22.40
2016,08,26,01,19,22.30
2016,08,26,01,20,22.30
2016,08,26,01,21,22.20
2016,08,26,01,22,22.10
2016,08,26,01,23,22.00
2016,08,26,01,24,22.00
2016,08,26,01,25,22.00
2016,08,26,01,26,22.00
2016,08,26,01,27,22.00
2016,08,26,01,28,21.90
2016,08,26,01,29,21.90
2016,08,26,01,30,22.00
2016,08,26,01,31,22.00
2016,08,26,01,32,22.00
2016,08,26,01,33,22.00
2016,08,26,01,34,21.80
2016,08,26,01,35,21.60
2016,08,26,01,36,21.40
2016,08,26,01,37,21.40
2016,08,26,01,38,21.50
2016,08,26,01,39,21.70
2016,08,26,01,40,21.90
2016,08,26,01,41,22.10
2016,08,26,01,42,22.30
2016,08,26,01,43,22.40
2016,08,26,01,44,22.50
2016,08,26,01,45,22.60
2016,08,26,01,46,22.70
2016,08,26,01,47,22.80
2016,08,26,01,48,22.90
2016,08,26,01,49,23.00
2016,08,26,01,50,23.10
2016,08,26,01,51,23.10
2016,08,26,01,52,23.00
2016,08,26,01,53,22.90
2016,08,26,01,54,22.80
2016,08,26,01,55,22.80
2016,08,26,01,56,22.80
2016,08,26,01,57,22.80
2016,08,26,01,58,22.70
2016,08,26,01,59,22.40
2016,08,26,02,00,22.00
2016,08,26,02,01,21.50
2016,08,26,02,02,21.10
2016,08,26,02,03,20.80
2016,08,26,02,04,20.70
2016,08,26,02,05,20.60
2016,08,26,02,06,20.50
2016,08,26,02,07,20.50
2016,08,26,02,08,20.60
2016,08,26,02,09,20.60
2016,08,26,02,10,20.50
2016,08,26,02,11,20.40
2016,08,26,02,12,20.30
2016,08,26,02,13,20.30
2016,08,26,02,14,20.30
2016,08,26,02,15,20.60
2016,08,26,02,16,20.80
2016,08,26,02,17,21.10
2016,08,26,02,18,21.30
2016,08,26,02,19,21.50
2016,08,26,02,20,21.60
2016,08,26,02,21,21.80
2016,08,26,02,22,21.90
2016,08,26,02,23,21.90
2016,08,26,02,24,22.00
2016,08,26,02,25,22.10
2016,08,26,02,26,22.10
2016,08,26,02,27,22.10
2016,08,26,02,28,22.10
2016,08,26,02,29,22.10
2016,08,26,02,30,22.10
2016,08,26,02,31,22.00
2016,08,26,02,32,21.90
2016,08,26,02,33,21.80
2016,08,26,02,34,21.80
2016,08,26,02,35,21.70
2016,08,26,02,36,21.60
2016,08,26,02,37,21.50
2016,08,26,02,38,21.40
2016,08,26,02,39,21.30
2016,08,26,02,40,21.20
2016,08,26,02,41,21.20
2016,08,26,02,42,21.40
2016,08,26,02,43,21.60
2016,08,26,02,44,21.80
2016,08,26,02,45,22.00
2016,08,26,02,46,22.10
2016,08,26,02,47,22.10
2016,08,26,02,48,22.00
2016,08,26,02,49,21.80
2016,08,26,02,50,21.60
2016,08,26,02,51,21.40
2016,08,26,02,52,21.10
2016,08,26,02,53,21.10
2016,08,26,02,54,21.40
2016,08,26,02,55,21.70
2016,08,26,02,56,21.80
2016,08,26,02,57,21.80
2016,08,26,02,58,21.90
2016,08,26,02,59,22.30
2016,08,26,03,00,22.70
2016,08,26,03,01,22.90
2016,08,26,03,02,23.10
2016,08,26,03,03,23.10
2016,08,26,03,04,22.90
2016,08,26,03,05,22.70
2016,08,26,03,06,22.70
2016,08,26,03,07,22.80
2016,08,26,03,08,23.00
2016,08,26,03,09,23.10
2016,08,26,03,10,22.90
2016,08,26,03,11,22.70
2016,08,26,03,12,22.50
2016,08,26,03,13,22.40
2016,08,26,03,14,22.20
2016,08,26,03,15,21.60
2016,08,26,03,16,21.20
2016,08,26,03,17,21.10
2016,08,26,03,18,20.80
2016,08,26,03,19,20.60
2016,08,26,03,20,20.50
2016,08,26,03,21,20.30
2016,08,26,03,22,20.00
2016,08,26,03,23,19.60
2016,08,26,03,24,19.30
2016,08,26,03,25,19.10
2016,08,26,03,26,19.10
2016,08,26,03,27,19.10
2016,08,26,03,28,19.10
2016,08,26,03,29,19.20
2016,08,26,03,30,19.40
2016,08,26,03,31,19.70
2016,08,26,03,32,20.00
2016,08,26,03,33,20.20
2016,08,26,03,34,20.30
2016,08,26,03,35,20.20
2016,08,26,03,36,20.20
2016,08,26,03,37,20.10
2016,08,26,03,38,20.10
2016,08,26,03,39,20.10
2016,08,26,03,40,20.10
2016,08,26,03,41,20.10
2016,08,26,03,42,20.20
2016,08,26,03,43,20.40
2016,08,26,03,44,20.70
2016,08,26,03,45,21.10
2016,08,26,03,46,21.40
2016,08,26,03,47,21.70
2016,08,26,03,48,21.70
2016,08,26,03,49,21.70
2016,08,26,03,50,21.50
2016,08,26,03,51,21.30
2016,08,26,03,52,21.20
2016,08,26,03,53,21.10
2016,08,26,03,54,21.10
2016,08,26,03,55,21.10
2016,08,26,03,56,21.10
2016,08,26,03,57,21.10
2016,08,26,03,58,21.10
2016,08,26,03,59,21.20
2016,08,26,04,00,21.30
2016,08,26,04,01,21.30
2016,08,26,04,02,21.30
2016,08,26,04,03,21.10
2016,08,26,04,04,21.00
2016,08,26,04,05,20.80
2016,08,26,04,06,20.60
2016,08,26,04,07,20.50
2016,08,26,04,08,20.30
2016,08,26,04,09,20.20
2016,08,26,04,10,20.10
2016,08,26,04,11,20.00
2016,08,26,04,12,19.80
2016,08,26,04,13,19.70
2016,08,26,04,14,19.70
2016,08,26,04,15,19.90
2016,08,26,04,16,20.10
2016,08,26,04,17,20.60
2016,08,26,04,18,21.00
2016,08,26,04,19,21.30
2016,08,26,04,20,21.60
2016,08,26,04,21,21.70
2016,08,26,04,22,21.80
2016,08,26,04,23,21.80
2016,08,26,04,24,21.80
2016,08,26,04,25,21.90
2016,08,26,04,26,22.00
2016,08,26,04,27,22.20
2016,08,26,04,28,22.40
2016,08,26,04,29,22.60
2016,08,26,04,30,22.70
2016,08,26,04,31,22.80
2016,08,26,04,32,22.90
2016,08,26,04,33,22.90
2016,08,26,04,34,22.90
2016,08,26,04,35,22.80
2016,08,26,04,36,22.70
2016,08,26,04,37,22.50
2016,08,26,04,38,22.20
2016,08,26,04,39,21.90
2016,08,26,04,40,21.60
2016,08,26,04,41,21.20
2016,08,26,04,42,20.40
2016,08,26,04,43,19.50
2016,08,26,04,44,18.70
2016,08,26,04,45,18.10
2016,08,26,04,46,17.80
2016,08,26,04,47,17.50
2016,08,26,04,48,17.30
2016,08,26,04,49,17.20
2016,08,26,04,50,17.20
2016,08,26,04,51,17.30
2016,08,26,04,52,17.60
2016,08,26,04,53,17.80
2016,08,26,04,54,17.90
2016,08,26,04,55,17.90
2016,08,26,04,56,17.90
2016,08,26,04,57,17.80
2016,08,26,04,58,17.70
2016,08,26,04,59,17.60
2016,08,26,05,00,17.60
2016,08,26,05,01,17.60
2016,08,26,05,02,17.70
2016,08,26,05,03,17.50
2016,08,26,05,04,17.20
2016,08,26,05,05,16.80
2016,08,26,05,06,16.60
2016,08,26,05,07,16.40
2016,08,26,05,08,16.40
2016,08,26,05,09,16.40
2016,08,26,05,10,16.20
2016,08,26,05,11,16.20
2016,08,26,05,12,16.20
2016,08,26,05,13,15.90
2016,08,26,05,14,15.70
2016,08,26,05,15,15.70
2016,08,26,05,16,15.60
2016,08,26,05,17,15.70
2016,08,26,05,18,15.60
2016,08,26,05,19,15.60
2016,08,26,05,20,15.50
2016,08,26,05,21,15.40
2016,08,26,05,22,15.30
2016,08,26,05,23,15.30
2016,08,26,05,24,15.30
2016,08,26,05,25,15.20
2016,08,26,05,26,15.10
2016,08,26,05,27,15.10
2016,08,26,05,28,15.10
2016,08,26,05,29,15.10
2016,08,26,05,30,15.10
2016,08,26,05,31,15.10
2016,08,26,05,32,15.10
2016,08,26,05,33,15.10
2016,08,26,05,34,15.10
2016,08,26,05,35,15.20
2016,08,26,05,36,15.20
2016,08,26,05,37,15.20
2016,08,26,05,38,15.20
2016,08,26,05,39,15.10
2016,08,26,05,40,15.00
2016,08,26,05,41,14.90
2016,08,26,05,42,14.90
2016,08,26,05,43,14.90
2016,08,26,05,44,15.00
2016,08,26,05,45,15.20
2016,08,26,05,46,15.30
2016,08,26,05,47,15.50
2016,08,26,05,48,15.60
2016,08,26,05,49,15.80
2016,08,26,05,50,15.90
2016,08,26,05,51,16.10
2016,08,26,05,52,16.20
2016,08,26,05,53,16.40
2016,08,26,05,54,16.50
2016,08,26,05,55,16.60
2016,08,26,05,56,16.70
2016,08,26,05,57,16.80
2016,08,26,05,58,16.90
2016,08,26,05,59,17.00
2016,08,26,06,00,17.00
2016,08,26,06,01,17.10
2016,08,26,06,02,17.20
2016,08,26,06,03,17.20
2016,08,26,06,04,17.30
2016,08,26,06,05,17.30
2016,08,26,06,06,17.30
2016,08,26,06,07,17.40
2016,08,26,06,08,17.40
2016,08,26,06,09,17.40
2016,08,26,06,10,17.40
2016,08,26,06,11,17.40
2016,08,26,06,12,17.40
2016,08,26,06,13,17.40
2016,08,26,06,14,17.40
2016,08,26,06,15,17.40
2016,08,26,06,16,17.40
2016,08,26,06,17,17.40
2016,08,26,06,18,17.40
2016,08,26,06,19,17.50
2016,08,26,06,20,17.50
2016,08,26,06,21,17.60
2016,08,26,06,22,17.60
2016,08,26,06,23,17.70
2016,08,26,06,24,17.70
2016,08,26,06,25,17.80
2016,08,26,06,26,17.80
2016,08,26,06,27,17.90
2016,08,26,06,28,18.00
2016,08,26,06,29,18.00
2016,08,26,06,30,18.10
2016,08,26,06,31,18.10
2016,08,26,06,32,18.20
2016,08,26,06,33,18.20
2016,08,26,06,34,18.20
2016,08,26,06,35,18.30
2016,08,26,06,36,18.30
2016,08,26,06,37,18.30
2016,08,26,06,38,18.30
2016,08,26,06,39,18.30
2016,08,26,06,40,18.40
2016,08,26,06,41,18.30
2016,08,26,06,42,18.30
2016,08,26,06,43,18.30
2016,08,26,06,44,18.30
2016,08,26,06,45,18.30
2016,08,26,06,46,18.30
2016,08,26,06,47,18.30
2016,08,26,06,48,18.20
2016,08,26,06,49,18.10
2016,08,26,06,50,18.10
2016,08,26,06,51,18.20
2016,08,26,06,52,18.20
2016,08,26,06,53,18.30
2016,08,26,06,54,18.30
2016,08,26,06,55,18.40
2016,08,26,06,56,18.40
2016,08,26,06,57,18.40
2016,08,26,06,58,18.50
2016,08,26,06,59,18.50
2016,08,26,07,00,18.50
2016,08,26,07,01,18.60
2016,08,26,07,02,18.50
2016,08,26,07,03,18.50
2016,08,26,07,04,18.50
2016,08,26,07,05,18.60
2016,08,26,07,06,18.60
2016,08,26,07,07,18.60
2016,08,26,07,08,18.60
2016,08,26,07,09,18.50
2016,08,26,07,10,18.50
2016,08,26,07,11,18.40
2016,08,26,07,12,18.40
2016,08,26,07,13,18.40
2016,08,26,07,14,18.30
2016,08,26,07,15,18.30
2016,08,26,07,16,18.30
2016,08,26,07,17,18.30
2016,08,26,07,18,18.30
2016,08,26,07,19,18.30
2016,08,26,07,20,18.40
2016,08,26,07,21,18.40
2016,08,26,07,22,18.40
2016,08,26,07,23,18.40
2016,08,26,07,24,18.50
2016,08,26,07,25,18.50
2016,08,26,07,26,18.60
2016,08,26,07,27,18.60
2016,08,26,07,28,18.60
2016,08,26,07,29,18.60
2016,08,26,07,30,18.50
2016,08,26,07,31,18.50
2016,08,26,07,32,18.40
2016,08,26,07,33,18.40
2016,08,26,07,34,18.40
2016,08,26,07,35,18.30
2016,08,26,07,36,18.30
2016,08,26,07,37,18.30
2016,08,26,07,38,18.40
2016,08,26,07,39,18.40
2016,08,26,07,40,18.40
2016,08,26,07,41,18.50
2016,08,26,07,42,18.50
2016,08,26,07,43,18.60
2016,08,26,07,44,18.60
2016,08,26,07,45,18.60
2016,08,26,07,46,18.60
2016,08,26,07,47,18.60
2016,08,26,07,48,18.60
2016,08,26,07,49,18.50
2016,08,26,07,50,18.40
2016,08,26,07,51,18.30
2016,08,26,07,52,18.10
2016,08,26,07,53,18.00
2016,08,26,07,54,17.90
2016,08,26,07,55,17.80
2016,08,26,07,56,17.80
2016,08,26,07,57,17.80
2016,08,26,07,58,17.80
2016,08,26,07,59,17.80
2016,08,26,08,00,17.90
2016,08,26,08,01,17.90
2016,08,26,08,02,17.80
2016,08,26,08,03,17.70
2016,08,26,08,04,17.50
2016,08,26,08,05,17.30
2016,08,26,08,06,17.20
2016,08,26,08,07,17.10
2016,08,26,08,08,17.00
2016,08,26,08,09,17.00
2016,08,26,08,10,16.90
2016,08,26,08,11,16.90
2016,08,26,08,12,16.90
2016,08,26,08,13,16.90
2016,08,26,08,14,16.90
2016,08,26,08,15,17.00
2016,08,26,08,16,17.10
2016,08,26,08,17,17.10
2016,08,26,08,18,17.20
2016,08,26,08,19,17.30
2016,08,26,08,20,17.40
2016,08,26,08,21,17.60
2016,08,26,08,22,17.70
2016,08,26,08,23,17.80
2016,08,26,08,24,18.00
2016,08,26,08,25,18.30
2016,08,26,08,26,18.60
2016,08,26,08,27,18.90
2016,08,26,08,28,19.20
2016,08,26,08,29,19.50
2016,08,26,08,30,19.80
2016,08,26,08,31,20.00
2016,08,26,08,32,20.20
2016,08,26,08,33,20.30
2016,08,26,08,34,20.50
2016,08,26,08,35,20.60
2016,08,26,08,36,20.70
2016,08,26,08,37,20.70
2016,08,26,08,38,20.80
2016,08,26,08,39,20.80
2016,08,26,08,40,20.80
2016,08,26,08,41,20.80
2016,08,26,08,42,20.70
2016,08,26,08,43,20.70
2016,08,26,08,44,20.60
2016,08,26,08,45,20.50
2016,08,26,08,46,20.40
2016,08,26,08,47,20.40
2016,08,26,08,48,20.30
2016,08,26,08,49,20.30
2016,08,26,08,50,20.30
2016,08,26,08,51,20.20
2016,08,26,08,52,20.20
2016,08,26,08,53,20.20
2016,08,26,08,54,20.20
2016,08,26,08,55,20.20
2016,08,26,08,56,20.10
2016,08,26,08,57,20.10
2016,08,26,08,58,20.10
2016,08,26,08,59,20.10
2016,08,26,09,00,20.10
2016,08,26,09,01,20.10
2016,08,26,09,02,20.20
2016,08,26,09,03,20.20
2016,08,26,09,04,20.10
2016,08,26,09,05,20.10
2016,08,26,09,06,20.10
2016,08,26,09,07,20.10
2016,08,26,09,08,20.10
2016,08,26,09,09,20.20
2016,08,26,09,10,20.10
2016,08,26,09,11,20.10
2016,08,26,09,12,20.10
2016,08,26,09,13,20.10
2016,08,26,09,14,20.10
2016,08,26,09,15,20.10
2016,08,26,09,16,20.00
2016,08,26,09,17,20.00
2016,08,26,09,18,20.00
2016,08,26,09,19,20.00
2016,08,26,09,20,20.00
2016,08,26,09,21,20.00
2016,08,26,09,22,20.10
2016,08,26,09,23,20.10
2016,08,26,09,24,20.10
2016,08,26,09,25,20.20
2016,08,26,09,26,20.20
2016,08,26,09,27,20.20
2016,08,26,09,28,20.30
2016,08,26,09,29,20.40
2016,08,26,09,30,20.40
2016,08,26,09,31,20.40
2016,08,26,09,32,20.50
2016,08,26,09,33,20.50
2016,08,26,09,34,20.60
2016,08,26,09,35,20.60
2016,08,26,09,36,20.60
2016,08,26,09,37,20.60
2016,08,26,09,38,20.70
2016,08,26,09,39,20.70
2016,08,26,09,40,20.70
2016,08,26,09,41,20.70
2016,08,26,09,42,20.70
2016,08,26,09,43,20.70
2016,08,26,09,44,20.80
2016,08,26,09,45,20.80
2016,08,26,09,46,20.80
2016,08,26,09,47,20.80
2016,08,26,09,48,20.80
2016,08,26,09,49,20.80
2016,08,26,09,50,20.90
2016,08,26,09,51,20.90
2016,08,26,09,52,20.90
2016,08,26,09,53,20.90
2016,08,26,09,54,20.80
2016,08,26,09,55,20.80
2016,08,26,09,56,20.80
2016,08,26,09,57,20.80
2016,08,26,09,58,20.80
2016,08,26,09,59,20.80
2016,08,26,10,00,20.80
2016,08,26,10,01,20.80
2016,08,26,10,02,20.80
2016,08,26,10,03,20.80
2016,08,26,10,04,20.80
2016,08,26,10,05,20.80
2016,08,26,10,06,20.70
2016,08,26,10,07,20.60
2016,08,26,10,08,20.50
2016,08,26,10,09,20.40
2016,08,26,10,10,20.30
2016,08,26,10,11,20.20
2016,08,26,10,12,20.10
2016,08,26,10,13,20.00
2016,08,26,10,14,19.80
2016,08,26,10,15,19.70
2016,08,26,10,16,19.50
2016,08,26,10,17,19.30
2016,08,26,10,18,19.20
2016,08,26,10,19,19.20
2016,08,26,10,20,19.20
2016,08,26,10,21,19.10
2016,08,26,10,22,19.00
2016,08,26,10,23,18.90
2016,08,26,10,24,18.70
2016,08,26,10,25,18.70
2016,08,26,10,26,18.70
2016,08,26,10,27,18.70
2016,08,26,10,28,18.80
2016,08,26,10,29,18.80
2016,08,26,10,30,18.90
2016,08,26,10,31,18.80
2016,08,26,10,32,18.80
2016,08,26,10,33,18.70
2016,08,26,10,34,18.60
2016,08,26,10,35,18.60
2016,08,26,10,36,18.60
2016,08,26,10,37,18.50
2016,08,26,10,38,18.50
2016,08,26,10,39,18.50
2016,08,26,10,40,18.40
2016,08,26,10,41,18.40
2016,08,26,10,42,18.40
2016,08,26,10,43,18.40
2016,08,26,10,44,18.40
2016,08,26,10,45,18.50
2016,08,26,10,46,18.50
2016,08,26,10,47,18.60
2016,08,26,10,48,18.80
2016,08,26,10,49,19.00
2016,08,26,10,50,19.10
2016,08,26,10,51,19.20
2016,08,26,10,52,19.30
2016,08,26,10,53,19.30
2016,08,26,10,54,19.40
2016,08,26,10,55,19.40
2016,08,26,10,56,19.50
2016,08,26,10,57,19.50
2016,08,26,10,58,19.60
2016,08,26,10,59,19.70
2016,08,26,11,00,19.70
2016,08,26,11,01,19.80
2016,08,26,11,02,19.80
2016,08,26,11,03,19.80
2016,08,26,11,04,19.70
2016,08,26,11,05,19.60
2016,08,26,11,06,19.40
2016,08,26,11,07,19.30
2016,08,26,11,08,19.10
2016,08,26,11,09,19.00
2016,08,26,11,10,18.90
2016,08,26,11,11,18.90
2016,08,26,11,12,18.90
2016,08,26,11,13,18.90
2016,08,26,11,14,18.90
2016,08,26,11,15,18.90
2016,08,26,11,16,18.90
2016,08,26,11,17,18.90
2016,08,26,11,18,18.90
2016,08,26,11,19,18.70
2016,08,26,11,20,18.50
2016,08,26,11,21,18.30
2016,08,26,11,22,18.40
2016,08,26,11,23,18.50
2016,08,26,11,24,18.70
2016,08,26,11,25,18.80
2016,08,26,11,26,19.00
2016,08,26,11,27,19.10
2016,08,26,11,28,19.20
2016,08,26,11,29,19.20
2016,08,26,11,30,19.30
2016,08,26,11,31,19.40
2016,08,26,11,32,19.40
2016,08,26,11,33,19.40
2016,08,26,11,34,19.30
2016,08,26,11,35,19.20
2016,08,26,11,36,19.20
2016,08,26,11,37,19.10
2016,08,26,11,38,19.20
2016,08,26,11,39,19.20
2016,08,26,11,40,19.30
2016,08,26,11,41,19.30
2016,08,26,11,42,19.30
2016,08,26,11,43,19.40
2016,08,26,11,44,19.40
2016,08,26,11,45,19.50
2016,08,26,11,46,19.50
2016,08,26,11,47,19.60
2016,08,26,11,48,19.60
2016,08,26,11,49,19.70
2016,08,26,11,50,19.70
2016,08,26,11,51,19.80
2016,08,26,11,52,19.80
2016,08,26,11,53,19.90
2016,08,26,11,54,19.90
2016,08,26,11,55,19.90
2016,08,26,11,56,19.90
2016,08,26,11,57,19.90
2016,08,26,11,58,19.90
2016,08,26,11,59,19.90
2016,08,26,12,00,20.00
2016,08,26,12,01,20.00
2016,08,26,12,02,20.10
2016,08,26,12,03,20.10
2016,08,26,12,04,20.10
2016,08,26,12,05,20.20
2016,08,26,12,06,20.20
2016,08,26,12,07,20.20
2016,08,26,12,08,20.20
2016,08,26,12,09,20.20
2016,08,26,12,10,20.20
2016,08,26,12,11,20.20
2016,08,26,12,12,20.20
2016,08,26,12,13,20.20
2016,08,26,12,14,20.20
2016,08,26,12,15,20.20
2016,08,26,12,16,20.20
2016,08,26,12,17,20.20
2016,08,26,12,18,20.20
2016,08,26,12,19,20.20
2016,08,26,12,20,20.20
2016,08,26,12,21,20.10
2016,08,26,12,22,20.10
2016,08,26,12,23,20.00
2016,08,26,12,24,20.00
2016,08,26,12,25,20.00
2016,08,26,12,26,20.10
2016,08,26,12,27,20.10
2016,08,26,12,28,20.10
2016,08,26,12,29,20.20
2016,08,26,12,30,20.20
2016,08,26,12,31,20.20
2016,08,26,12,32,20.20
2016,08,26,12,33,20.20
2016,08,26,12,34,20.30
2016,08,26,12,35,20.30
2016,08,26,12,36,20.40
2016,08,26,12,37,20.40
2016,08,26,12,38,20.40
2016,08,26,12,39,20.40
2016,08,26,12,40,20.40
2016,08,26,12,41,20.50
2016,08,26,12,42,20.70
2016,08,26,12,43,20.70
2016,08,26,12,44,20.60
2016,08,26,12,45,20.60
2016,08,26,12,46,20.60
2016,08,26,12,47,20.50
2016,08,26,12,48,20.40
2016,08,26,12,49,20.30
2016,08,26,12,50,20.30
2016,08,26,12,51,20.30
2016,08,26,12,52,20.30
2016,08,26,12,53,20.30
2016,08,26,12,54,20.40
2016,08,26,12,55,20.40
2016,08,26,12,56,20.40
2016,08,26,12,57,20.40
2016,08,26,12,58,20.40
2016,08,26,12,59,20.30
2016,08,26,13,00,20.30
2016,08,26,13,01,20.30
2016,08,26,13,02,20.30
2016,08,26,13,03,20.30
2016,08,26,13,04,20.30
2016,08,26,13,05,20.40
2016,08,26,13,06,20.50
2016,08,26,13,07,20.60
2016,08,26,13,08,20.70
2016,08,26,13,09,20.70
2016,08,26,13,10,20.80
2016,08,26,13,11,20.80
2016,08,26,13,12,20.80
2016,08,26,13,13,20.80
2016,08,26,13,14,20.80
2016,08,26,13,15,20.80
2016,08,26,13,16,20.80
2016,08,26,13,17,20.70
2016,08,26,13,18,20.70
2016,08,26,13,19,20.60
2016,08,26,13,20,20.50
2016,08,26,13,21,20.40
2016,08,26,13,22,20.30
2016,08,26,13,23,20.20
2016,08,26,13,24,20.10
2016,08,26,13,25,20.10
2016,08,26,13,26,20.10
2016,08,26,13,27,20.10
2016,08,26,13,28,20.10
2016,08,26,13,29,20.10
2016,08,26,13,30,20.10
2016,08,26,13,31,20.10
2016,08,26,13,32,20.10
2016,08,26,13,33,20.10
2016,08,26,13,34,20.00
2016,08,26,13,35,20.00
2016,08,26,13,36,19.90
2016,08,26,13,37,19.90
2016,08,26,13,38,19.80
2016,08,26,13,39,19.80
2016,08,26,13,40,19.70
2016,08,26,13,41,19.70
2016,08,26,13,42,19.70
2016,08,26,13,43,19.70
2016,08,26,13,44,19.70
2016,08,26,13,45,19.70
2016,08,26,13,46,19.70
2016,08,26,13,47,19.70
2016,08,26,13,48,19.70
2016,08,26,13,49,19.60
2016,08,26,13,50,19.60
2016,08,26,13,51,19.50
2016,08,26,13,52,19.50
2016,08,26,13,53,19.40
2016,08,26,13,54,19.40
2016,08,26,13,55,19.20
2016,08,26,13,56,19.00
2016,08,26,13,57,18.70
2016,08,26,13,58,18.50
2016,08,26,13,59,18.30
2016,08,26,14,00,18.30
2016,08,26,14,01,18.20
2016,08,26,14,02,18.10
2016,08,26,14,03,18.00
2016,08,26,14,04,17.90
2016,08,26,14,05,17.90
2016,08,26,14,06,18.00
2016,08,26,14,07,18.00
2016,08,26,14,08,17.90
2016,08,26,14,09,17.90
2016,08,26,14,10,17.80
2016,08,26,14,11,17.70
2016,08,26,14,12,17.70
2016,08,26,14,13,17.70
2016,08,26,14,14,17.60
2016,08,26,14,15,17.50
2016,08,26,14,16,17.40
2016,08,26,14,17,17.40
2016,08,26,14,18,17.40
2016,08,26,14,19,17.40
2016,08,26,14,20,17.30
2016,08,26,14,21,17.30
2016,08,26,14,22,17.20
2016,08,26,14,23,17.20
2016,08,26,14,24,17.10
2016,08,26,14,25,17.20
2016,08,26,14,26,17.20
2016,08,26,14,27,17.20
2016,08,26,14,28,17.20
2016,08,26,14,29,17.20
2016,08,26,14,30,17.30
2016,08,26,14,31,17.30
2016,08,26,14,32,17.40
2016,08,26,14,33,17.50
2016,08,26,14,34,17.70
2016,08,26,14,35,17.90
2016,08,26,14,36,18.00
2016,08,26,14,37,18.20
2016,08,26,14,38,18.30
2016,08,26,14,39,18.40
2016,08,26,14,40,18.50
2016,08,26,14,41,18.50
2016,08,26,14,42,18.60
2016,08,26,14,43,18.70
2016,08,26,14,44,18.70
2016,08,26,14,45,18.80
2016,08,26,14,46,18.90
2016,08,26,14,47,19.00
2016,08,26,14,48,19.10
2016,08,26,14,49,19.10
2016,08,26,14,50,19.10
2016,08,26,14,51,19.20
2016,08,26,14,52,19.30
2016,08,26,14,53,19.40
2016,08,26,14,54,19.40
2016,08,26,14,55,19.40
2016,08,26,14,56,19.50
2016,08,26,14,57,19.60
2016,08,26,14,58,19.60
2016,08,26,14,59,19.70
2016,08,26,15,00,19.80
2016,08,26,15,01,19.80
2016,08,26,15,02,19.90
2016,08,26,15,03,20.00
2016,08,26,15,04,20.10
2016,08,26,15,05,20.20
2016,08,26,15,06,20.30
2016,08,26,15,07,20.40
2016,08,26,15,08,20.50
2016,08,26,15,09,20.60
2016,08,26,15,10,20.50
2016,08,26,15,11,20.40
2016,08,26,15,12,20.50
2016,08,26,15,13,20.60
2016,08,26,15,14,20.70
2016,08,26,15,15,20.90
2016,08,26,15,16,21.10
2016,08,26,15,17,21.20
2016,08,26,15,18,21.30
2016,08,26,15,19,21.40
2016,08,26,15,20,21.60
2016,08,26,15,21,21.60
2016,08,26,15,22,21.60
2016,08,26,15,23,21.60
2016,08,26,15,24,21.70
2016,08,26,15,25,22.20
2016,08,26,15,26,22.30
2016,08,26,15,27,22.20
2016,08,26,15,28,22.10
2016,08,26,15,29,22.00
2016,08,26,15,30,21.90
2016,08,26,15,31,21.80
2016,08,26,15,32,21.80
2016,08,26,15,33,21.80
2016,08,26,15,34,21.80
2016,08,26,15,35,21.80
2016,08,26,15,36,21.80
2016,08,26,15,37,21.90
2016,08,26,15,38,21.90
2016,08,26,15,39,21.90
2016,08,26,15,40,21.90
2016,08,26,15,41,22.00
2016,08,26,15,42,22.00
2016,08,26,15,43,21.90
2016,08,26,15,44,21.90
2016,08,26,15,45,22.00
2016,08,26,15,46,22.00
2016,08,26,15,47,21.90
2016,08,26,15,48,21.90
2016,08,26,15,49,21.80
2016,08,26,15,50,21.70
2016,08,26,15,51,21.60
2016,08,26,15,52,21.50
2016,08,26,15,53,21.40
2016,08,26,15,54,21.50
2016,08,26,15,55,21.60
2016,08,26,15,56,21.60
2016,08,26,15,57,21.70
2016,08,26,15,58,21.70
2016,08,26,15,59,21.70
2016,08,26,16,00,21.60
2016,08,26,16,01,21.60
2016,08,26,16,02,21.60
2016,08,26,16,03,21.60
2016,08,26,16,04,21.60
2016,08,26,16,05,21.60
2016,08,26,16,06,21.70
2016,08,26,16,07,21.70
2016,08,26,16,08,21.70
2016,08,26,16,09,21.80
2016,08,26,16,10,21.80
2016,08,26,16,11,21.90
2016,08,26,16,12,21.90
2016,08,26,16,13,22.00
2016,08,26,16,14,22.10
2016,08,26,16,15,22.10
2016,08,26,16,16,22.20
2016,08,26,16,17,22.10
2016,08,26,16,18,22.00
2016,08,26,16,19,22.00
2016,08,26,16,20,21.90
2016,08,26,16,21,21.90
2016,08,26,16,22,21.90
2016,08,26,16,23,21.90
2016,08,26,16,24,21.90
2016,08,26,16,25,21.80
2016,08,26,16,26,21.80
2016,08,26,16,27,21.80
2016,08,26,16,28,21.70
2016,08,26,16,29,21.60
2016,08,26,16,30,21.50
2016,08,26,16,31,21.30
2016,08,26,16,32,21.00
2016,08,26,16,33,20.70
2016,08,26,16,34,20.40
2016,08,26,16,35,20.20
2016,08,26,16,36,19.90
2016,08,26,16,37,19.60
2016,08,26,16,38,19.30
2016,08,26,16,39,19.10
2016,08,26,16,40,18.90
2016,08,26,16,41,18.80
2016,08,26,16,42,18.70
2016,08,26,16,43,18.60
2016,08,26,16,44,18.50
2016,08,26,16,45,18.50
2016,08,26,16,46,18.50
2016,08,26,16,47,18.10
2016,08,26,16,48,17.90
2016,08,26,16,49,17.70
2016,08,26,16,50,17.50
2016,08,26,16,51,17.30
2016,08,26,16,52,17.10
2016,08,26,16,53,17.00
2016,08,26,16,54,16.80
2016,08,26,16,55,16.70
2016,08,26,16,56,16.60
2016,08,26,16,57,16.60
2016,08,26,16,58,16.50
2016,08,26,16,59,16.50
2016,08,26,17,00,16.50
2016,08,26,17,01,16.40
2016,08,26,17,02,16.40
2016,08,26,17,03,16.40
2016,08,26,17,04,16.40
2016,08,26,17,05,16.40
2016,08,26,17,06,16.40
2016,08,26,17,07,16.40
2016,08,26,17,08,16.50
2016,08,26,17,09,16.50
2016,08,26,17,10,16.50
2016,08,26,17,11,16.60
2016,08,26,17,12,16.80
2016,08,26,17,13,17.20
2016,08,26,17,14,17.80
2016,08,26,17,15,18.30
2016,08,26,17,16,18.40
2016,08,26,17,17,18.70
2016,08,26,17,18,19.00
2016,08,26,17,19,19.10